Location: Unspecified
(49.8670°N, 0.0000°E)
Time: 18:43:05
(UTC+00:00)

Vanguard 1 - Pass Details

Date: 27 June 2019
Orbit: 655 x 3829 km, 34.2° (Epoch: 22 August)

Event Time Altitude Azimuth Distance (km) Brightness Sun altitude
Rises 22:21:11 0° 191° (SSW) 7,873 14.2 -13.4°
Enters shadow 22:23:50 - 187° (S) 7,548 14.0 -13.6°
Reaches altitude 10° 22:29:09 10° 177° (S) 6,925 - -13.9°
Exits shadow 22:34:55 16° 164° (SSE) 6,334 13.5 -14.3°
Maximum altitude 22:42:43 20° 141° (SE) 5,788 13.4 -14.7°
Drops below altitude 10° 22:54:15 10° 103° (ESE) 5,875 13.7 -15.2°
Sets 22:59:56 0° 88° (E) 6,389 14.1 -15.5°
